• In Kazakhstan
  • List of Countries
  • For 7 days
  • Water Temperature
  • Satellite Maps
  • Weather Map
  • News
  • Weather Widgets
  • user-avatar
    Login

    Hourly Weather Yulara

    Today, 20 September, Wednesday

    Time Temperature Precipitation Wind Pressure Humidity
    00:00 +21°C° 0 mm 6 mps 720 mmHg 33%
    01:00 +20°C° 0 mm 5 mps 720 mmHg 33%
    02:00 +20°C° 0 mm 5 mps 719 mmHg 34%
    03:00 +19°C° 0 mm 5 mps 719 mmHg 35%
    04:00 +18°C° 0 mm 4 mps 719 mmHg 36%
    05:00 +18°C° 0 mm 4 mps 719 mmHg 37%
    06:00 +17°C° 0 mm 3 mps 719 mmHg 38%
    07:00 +20°C° 0 mm 4 mps 719 mmHg 32%
    08:00 +23°C° 0 mm 5 mps 720 mmHg 27%
    09:00 +27°C° 0 mm 5 mps 720 mmHg 19%
    10:00 +29°C° 0 mm 6 mps 720 mmHg 17%
    11:00 +32°C° 0 mm 6 mps 719 mmHg 14%
    12:00 +34°C° 0 mm 7 mps 719 mmHg 11%
    13:00 +35°C° 0 mm 7 mps 718 mmHg 10%
    14:00 +35°C° 0 mm 7 mps 718 mmHg 9%
    15:00 +36°C° 0 mm 7 mps 717 mmHg 8%
    16:00 +34°C° 0 mm 5 mps 717 mmHg 9%
    17:00 +33°C° 0 mm 4 mps 717 mmHg 10%
    18:00 +31°C° 0 mm 3 mps 716 mmHg 11%
    19:00 +29°C° 0 mm 3 mps 717 mmHg 12%
    20:00 +28°C° 0 mm 3 mps 717 mmHg 13%
    21:00 +26°C° 0 mm 3 mps 717 mmHg 14%
    22:00 +25°C° 0 mm 3 mps 717 mmHg 14%
    23:00 +25°C° 0 mm 3 mps 716 mmHg 15%

    Tomorrow, 21 September, Thursday

    Time Temperature Precipitation Wind Pressure Humidity
    00:00 +24°C° 0 mm 3 mps 716 mmHg 16%
    01:00 +22°C° 0 mm 3 mps 716 mmHg 16%
    02:00 +22°C° 0 mm 3 mps 716 mmHg 16%
    03:00 +22°C° 0 mm 3 mps 715 mmHg 17%
    04:00 +21°C° 0 mm 3 mps 715 mmHg 17%
    05:00 +21°C° 0 mm 3 mps 715 mmHg 18%
    06:00 +20°C° 0 mm 3 mps 716 mmHg 18%
    07:00 +23°C° 0 mm 5 mps 716 mmHg 15%
    08:00 +28°C° 0 mm 6 mps 717 mmHg 13%
    09:00 +32°C° 0 mm 7 mps 717 mmHg 10%
    10:00 +34°C° 0 mm 8 mps 717 mmHg 9%
    11:00 +37°C° 0 mm 8 mps 717 mmHg 8%
    12:00 +39°C° 0 mm 9 mps 716 mmHg 7%
    13:00 +39°C° 0 mm 9 mps 716 mmHg 7%
    14:00 +39°C° 0 mm 9 mps 715 mmHg 7%
    15:00 +39°C° 0 mm 9 mps 714 mmHg 7%
    16:00 +38°C° 0 mm 8 mps 714 mmHg 7%
    17:00 +36°C° 0 mm 6 mps 714 mmHg 8%
    18:00 +34°C° 0 mm 5 mps 714 mmHg 9%
    19:00 +33°C° 0 mm 5 mps 715 mmHg 10%
    20:00 +30°C° 0 mm 5 mps 715 mmHg 11%
    21:00 +28°C° 0 mm 4 mps 716 mmHg 12%
    22:00 +27°C° 0 mm 4 mps 716 mmHg 12%
    23:00 +27°C° 0 mm 4 mps 716 mmHg 13%

    Day after tomorrow, 22 September, Friday

    Time Temperature Precipitation Wind Pressure Humidity
    00:00 +26°C° 0 mm 4 mps 716 mmHg 14%
    01:00 +25°C° 0 mm 4 mps 715 mmHg 16%
    02:00 +24°C° 0 mm 3 mps 715 mmHg 17%
    03:00 +24°C° 0 mm 3 mps 714 mmHg 18%
    04:00 +22°C° 0 mm 3 mps 715 mmHg 21%
    05:00 +21°C° 0 mm 2 mps 715 mmHg 23%
    06:00 +20°C° 0 mm 2 mps 715 mmHg 25%
    07:00 +24°C° 0 mm 2 mps 716 mmHg 22%
    08:00 +27°C° 0 mm 1 mps 717 mmHg 19%
    09:00 +30°C° 0 mm 1 mps 717 mmHg 16%
    10:00 +32°C° 0 mm 2 mps 717 mmHg 14%
    11:00 +35°C° 0 mm 3 mps 717 mmHg 12%
    12:00 +36°C° 0 mm 3 mps 716 mmHg 11%
    13:00 +37°C° 0 mm 5 mps 715 mmHg 10%
    14:00 +39°C° 0 mm 6 mps 715 mmHg 9%
    15:00 +40°C° 0 mm 8 mps 714 mmHg 8%
    16:00 +38°C° 0 mm 7 mps 714 mmHg 8%
    17:00 +36°C° 0 mm 6 mps 714 mmHg 9%
    18:00 +35°C° 0 mm 5 mps 714 mmHg 9%
    19:00 +33°C° 0 mm 5 mps 714 mmHg 10%
    20:00 +32°C° 0 mm 5 mps 714 mmHg 10%
    21:00 +29°C° 0 mm 5 mps 715 mmHg 11%
    22:00 +29°C° 0 mm 5 mps 715 mmHg 11%
    23:00 +28°C° 0 mm 5 mps 715 mmHg 12%

    23 September, Saturday

    Time Temperature Precipitation Wind Pressure Humidity
    00:00 +27°C° 0 mm 4 mps 714 mmHg 12%
    01:00 +26°C° 0 mm 5 mps 714 mmHg 13%
    02:00 +26°C° 0 mm 5 mps 713 mmHg 14%
    03:00 +25°C° 0 mm 5 mps 713 mmHg 14%
    04:00 +25°C° 0 mm 5 mps 714 mmHg 16%
    05:00 +23°C° 0 mm 5 mps 714 mmHg 17%
    06:00 +22°C° 0 mm 5 mps 714 mmHg 19%
    07:00 +24°C° 0 mm 6 mps 715 mmHg 23%
    08:00 +26°C° 0 mm 6 mps 716 mmHg 27%
    09:00 +27°C° 0 mm 7 mps 716 mmHg 31%
    10:00 +29°C° 0 mm 6 mps 716 mmHg 28%
    11:00 +30°C° 0 mm 5 mps 716 mmHg 24%
    12:00 +33°C° 0 mm 4 mps 716 mmHg 20%
    13:00 +34°C° 0 mm 5 mps 715 mmHg 17%
    14:00 +36°C° 0 mm 7 mps 714 mmHg 15%
    15:00 +38°C° 0 mm 9 mps 713 mmHg 12%
    16:00 +37°C° 0 mm 8 mps 713 mmHg 13%
    17:00 +35°C° 0 mm 7 mps 713 mmHg 13%
    18:00 +34°C° 0 mm 6 mps 713 mmHg 14%
    19:00 +32°C° 0 mm 6 mps 714 mmHg 15%
    20:00 +29°C° 0 mm 5 mps 714 mmHg 17%
    21:00 +28°C° 0 mm 5 mps 715 mmHg 18%
    22:00 +27°C° 0 mm 5 mps 715 mmHg 19%
    23:00 +26°C° 0 mm 4 mps 714 mmHg 21%

    24 September, Sunday

    Time Temperature Precipitation Wind Pressure Humidity
    00:00 +25°C° 0 mm 4 mps 714 mmHg 22%
    01:00 +23°C° 0 mm 4 mps 714 mmHg 23%
    02:00 +22°C° 0 mm 4 mps 713 mmHg 23%
    03:00 +21°C° 0 mm 4 mps 713 mmHg 24%
    04:00 +20°C° 0 mm 3 mps 713 mmHg 25%
    05:00 +19°C° 0 mm 3 mps 713 mmHg 25%
    06:00 +19°C° 0 mm 3 mps 713 mmHg 25%
    07:00 +22°C° 0 mm 3 mps 714 mmHg 23%
    08:00 +25°C° 0 mm 4 mps 714 mmHg 20%
    09:00 +28°C° 0 mm 5 mps 715 mmHg 17%
    10:00 +32°C° 0 mm 6 mps 714 mmHg 15%
    11:00 +34°C° 0 mm 8 mps 713 mmHg 14%
    12:00 +38°C° 0 mm 9 mps 713 mmHg 12%
    13:00 +38°C° 0 mm 10 mps 712 mmHg 12%
    14:00 +39°C° 0 mm 11 mps 711 mmHg 11%
    15:00 +39°C° 0 mm 12 mps 710 mmHg 11%
    16:00 +38°C° 0 mm 10 mps 710 mmHg 11%
    17:00 +37°C° 0 mm 9 mps 710 mmHg 12%
    18:00 +35°C° 0 mm 8 mps 710 mmHg 13%
    19:00 +33°C° 0 mm 7 mps 711 mmHg 14%
    20:00 +32°C° 0 mm 6 mps 711 mmHg 16%
    21:00 +29°C° 0 mm 5 mps 712 mmHg 17%
    22:00 +28°C° 0 mm 5 mps 712 mmHg 18%
    23:00 +27°C° 0 mm 5 mps 711 mmHg 19%

    25 September, Monday

    Time Temperature Precipitation Wind Pressure Humidity
    00:00 +27°C° 0 mm 5 mps 711 mmHg 20%
    01:00 +26°C° 0 mm 5 mps 711 mmHg 21%
    02:00 +25°C° 0 mm 4 mps 710 mmHg 21%
    03:00 +22°C° 0 mm 4 mps 710 mmHg 22%
    04:00 +21°C° 0 mm 3 mps 710 mmHg 23%
    05:00 +20°C° 0 mm 3 mps 710 mmHg 23%
    06:00 +19°C° 0 mm 2 mps 710 mmHg 23%
    07:00 +22°C° 0 mm 3 mps 711 mmHg 20%
    08:00 +26°C° 0 mm 4 mps 711 mmHg 16%
    09:00 +29°C° 0 mm 5 mps 712 mmHg 13%
    10:00 +32°C° 0 mm 8 mps 711 mmHg 11%
    11:00 +34°C° 0 mm 11 mps 711 mmHg 9%
    12:00 +37°C° 0 mm 14 mps 711 mmHg 6%
    13:00 +37°C° 0 mm 14 mps 710 mmHg 6%
    14:00 +37°C° 0 mm 14 mps 710 mmHg 6%
    15:00 +37°C° 0 mm 14 mps 709 mmHg 6%
    16:00 +36°C° 0 mm 12 mps 710 mmHg 7%
    17:00 +34°C° 0 mm 11 mps 710 mmHg 8%
    18:00 +32°C° 0 mm 9 mps 710 mmHg 8%
    19:00 +31°C° 0 mm 8 mps 711 mmHg 10%
    20:00 +28°C° 0 mm 7 mps 711 mmHg 12%
    21:00 +26°C° 0 mm 6 mps 712 mmHg 14%
    22:00 +25°C° 0 mm 5 mps 712 mmHg 16%
    23:00 +23°C° 0 mm 5 mps 712 mmHg 17%
    Show more